Weather History for KSTK - December, 2014

Change the Weather History Date:

Wednesday, December 24, 2014

  Actual Average Record
Temperature  
Mean Temperature 22 °F -  
Max Temperature 35 °F 36 °F 46 °F (2013)
Min Temperature 10 °F 11 °F 10 °F (2014)
Degree Days  
Heating Degree Days 42    
Moisture  
Dew Point 18 °F    
Average Humidity 82    
Maximum Humidity 93    
Minimum Humidity 64    
Precipitation  
Precipitation 0.00 in - - ()
Sea Level Pressure  
Sea Level Pressure 29.76 in    
Wind  
Wind Speed 5 mph (SW)    
Max Wind Speed 12 mph    
Max Gust Speed -    
Visibility 10 miles    
Events      
Averages and records for this station are not official NWS values.
T = Trace of Precipitation, MM = Missing Value Source: NWS Daily Summary

Daily Weather History Graph

Daily Weather History Graph

Search for Another Location

Airport or City:

Trip Planner

Search our weather history database for the weather conditions in past years. The results will help you decide how hot, cold, wet, or windy it might be!

Date:

Astronomy

Dec. 24, 2014 Rise Set
Actual Time 7:14 AM MST 4:30 PM MST
Civil Twilight 6:43 AM MST 5:01 PM MST
Nautical Twilight 6:09 AM MST 5:36 PM MST
Astronomical Twilight 5:36 AM MST 6:09 PM MST
Moon 9:06 AM MST (12/24) 7:58 PM MST (12/24)
Length of Visible Light 10h 18m
Length of Day
9h 16m
Waxing Crescent, 10% of the Moon is Illuminated
Dec 24
Waxing Crescent
Dec 28
First Quarter
Jan 4
Full
Jan 13
Last Quarter
Jan 20
New

Hourly Weather History & Observations

Time (MST) Temp. Windchill Dew Point Humidity Pressure Visibility Wind Dir Wind Speed Gust Speed Precip Events Conditions
12:10 AM 14.0 °F 8.2 °F 12.2 °F 93% 30.09 in 10.0 mi West 3.5 mph - N/A   Clear
12:30 AM 12.2 °F 4.3 °F 8.6 °F 85% 30.08 in 10.0 mi West 4.6 mph - N/A   Clear
12:50 AM 12.2 °F - 10.4 °F 92% 30.07 in 10.0 mi Calm Calm - N/A   Clear
1:10 AM 10.4 °F 2.2 °F 8.6 °F 92% 30.05 in 10.0 mi South 4.6 mph - N/A   Clear
1:30 AM 10.4 °F - 8.6 °F 92% 30.04 in 10.0 mi Calm Calm - N/A   Clear
1:50 AM 12.2 °F 4.3 °F 8.6 °F 85% 30.05 in 10.0 mi South 4.6 mph - N/A   Clear
2:10 AM 10.4 °F 4.0 °F 8.6 °F 92% 30.04 in 10.0 mi SW 3.5 mph - N/A   Clear
2:30 AM 10.4 °F 4.0 °F 8.6 °F 92% 30.03 in 10.0 mi SSW 3.5 mph - N/A   Clear
2:50 AM 10.4 °F 4.0 °F 8.6 °F 92% 30.02 in 10.0 mi SSW 3.5 mph - N/A   Clear
3:10 AM 10.4 °F 4.0 °F 8.6 °F 92% 30.00 in 10.0 mi SSW 3.5 mph - N/A   Clear
3:30 AM 12.2 °F 4.3 °F 8.6 °F 85% 30.00 in 10.0 mi SSW 4.6 mph - N/A   Clear
3:50 AM 10.4 °F 4.0 °F 6.8 °F 85% 29.99 in 10.0 mi SW 3.5 mph - N/A   Clear
4:10 AM 12.2 °F 0.7 °F 8.6 °F 85% 29.98 in 10.0 mi SSW 8.1 mph - N/A   Clear
4:30 AM 10.4 °F 2.2 °F 8.6 °F 92% 29.97 in 10.0 mi South 4.6 mph - N/A   Clear
4:50 AM 12.2 °F 2.9 °F 8.6 °F 85% 29.97 in 10.0 mi SW 5.8 mph - N/A   Clear
5:10 AM 10.4 °F -2.4 °F 8.6 °F 92% 29.95 in 10.0 mi SSW 9.2 mph - N/A   Clear
5:30 AM 12.2 °F -1.0 °F 8.6 °F 85% 29.95 in 10.0 mi SSW 10.4 mph - N/A   Clear
5:50 AM 12.2 °F -1.8 °F 8.6 °F 85% 29.94 in 10.0 mi SSW 11.5 mph - N/A   Clear
6:10 AM 12.2 °F -1.8 °F 10.4 °F 92% 29.93 in 10.0 mi SW 11.5 mph - N/A   Clear
6:30 AM 12.2 °F -1.8 °F 10.4 °F 92% 29.93 in 10.0 mi SW 11.5 mph - N/A   Clear
6:50 AM 12.2 °F 0.7 °F 8.6 °F 85% 29.93 in 10.0 mi SSW 8.1 mph - N/A   Clear
7:10 AM 12.2 °F 6.1 °F 8.6 °F 85% 29.93 in 10.0 mi SW 3.5 mph - N/A   Clear
7:30 AM 12.2 °F -1.0 °F 8.6 °F 85% 29.91 in 10.0 mi SSW 10.4 mph - N/A   Clear
7:50 AM 14.0 °F 2.9 °F 10.4 °F 86% 29.91 in 10.0 mi SW 8.1 mph - N/A   Clear
8:10 AM 14.0 °F 2.0 °F 10.4 °F 86% 29.90 in 10.0 mi SW 9.2 mph - N/A   Clear
8:30 AM 15.8 °F 4.2 °F 10.4 °F 79% 29.90 in 10.0 mi SW 9.2 mph - N/A   Clear
8:50 AM 17.6 °F 6.4 °F 12.2 °F 79% 29.89 in 10.0 mi SW 9.2 mph - N/A   Clear
9:10 AM 17.6 °F 6.4 °F 12.2 °F 79% 29.87 in 10.0 mi South 9.2 mph - N/A   Clear
9:30 AM 19.4 °F 8.6 °F 14.0 °F 80% 29.87 in 10.0 mi SSW 9.2 mph - N/A   Clear
9:50 AM 21.2 °F 11.7 °F 14.0 °F 74% 29.87 in 10.0 mi SSW 8.1 mph - N/A   Clear
10:10 AM 23.0 °F 13.1 °F 17.6 °F 80% 29.85 in 10.0 mi SSW 9.2 mph - N/A   Clear
10:30 AM 26.6 °F 16.8 °F 17.6 °F 69% 29.83 in 10.0 mi SSW 10.4 mph - N/A   Clear
10:50 AM 26.6 °F 16.8 °F 17.6 °F 69% 29.82 in 10.0 mi SSW 10.4 mph - N/A   Clear
11:10 AM 28.4 °F 19.1 °F 19.4 °F 69% 29.79 in 10.0 mi SW 10.4 mph - N/A   Clear
11:30 AM 28.4 °F 20.4 °F 21.2 °F 74% 29.78 in 10.0 mi SSW 8.1 mph - N/A   Clear
11:50 AM 30.2 °F 21.9 °F 21.2 °F 69% 29.75 in 10.0 mi SSW 9.2 mph - N/A   Clear
12:10 PM 32.0 °F 24.2 °F 21.2 °F 64% 29.73 in 10.0 mi SW 9.2 mph - N/A   Clear
12:30 PM 32.0 °F 25.6 °F 23.0 °F 69% 29.71 in 10.0 mi SSW 6.9 mph - N/A   Clear
12:50 PM 33.8 °F 26.4 °F 23.0 °F 65% 29.70 in 10.0 mi SW 9.2 mph - N/A   Clear
1:10 PM 33.8 °F 28.6 °F 24.8 °F 70% 29.71 in 10.0 mi South 5.8 mph - N/A   Clear
1:30 PM 33.8 °F 28.6 °F 24.8 °F 70% 29.69 in 10.0 mi South 5.8 mph - N/A   Clear
1:50 PM 35.6 °F 29.9 °F 26.6 °F 70% 29.68 in 10.0 mi South 6.9 mph - N/A   Clear
2:10 PM 35.6 °F 29.9 °F 26.6 °F 70% 29.67 in 10.0 mi South 6.9 mph - N/A   Clear
2:30 PM 35.6 °F 28.6 °F 26.6 °F 70% 29.65 in 10.0 mi South 9.2 mph - N/A   Clear
2:50 PM 33.8 °F 27.0 °F 26.6 °F 75% 29.66 in 10.0 mi SSW 8.1 mph - N/A   Clear
3:10 PM 33.8 °F 28.6 °F 28.4 °F 81% 29.65 in 10.0 mi South 5.8 mph - N/A   Clear
3:30 PM 33.8 °F - 28.4 °F 81% 29.64 in 10.0 mi Calm Calm - N/A   Clear
3:50 PM 33.8 °F 29.6 °F 26.6 °F 75% 29.63 in 10.0 mi South 4.6 mph - N/A   Clear
4:10 PM 32.0 °F 28.7 °F 28.4 °F 87% 29.63 in 10.0 mi South 3.5 mph - N/A   Clear
4:30 PM 32.0 °F 26.4 °F 26.6 °F 80% 29.62 in 10.0 mi SSW 5.8 mph - N/A   Clear
4:50 PM 28.4 °F 22.2 °F 23.0 °F 80% 29.62 in 10.0 mi SW 5.8 mph - N/A   Clear
5:10 PM 30.2 °F 26.7 °F 24.8 °F 80% 29.61 in 10.0 mi WSW 3.5 mph - N/A   Clear
5:30 PM 28.4 °F 23.3 °F 23.0 °F 80% 29.60 in 10.0 mi West 4.6 mph - N/A   Clear
5:50 PM 26.6 °F 21.2 °F 23.0 °F 86% 29.58 in 10.0 mi West 4.6 mph - N/A   Clear
6:10 PM 28.4 °F 22.2 °F 23.0 °F 80% 29.58 in 10.0 mi West 5.8 mph - N/A   Clear
6:30 PM 30.2 °F - 26.6 °F 86% 29.56 in 10.0 mi Calm Calm - N/A   Clear
6:50 PM 30.2 °F - 26.6 °F 86% 29.56 in 10.0 mi Calm Calm - N/A   Clear
7:10 PM 28.4 °F - 24.8 °F 86% 29.55 in 10.0 mi Calm Calm - N/A   Clear
7:30 PM 28.4 °F 23.3 °F 23.0 °F 80% 29.55 in 10.0 mi North 4.6 mph - N/A   Clear
7:50 PM 30.2 °F 26.7 °F 24.8 °F 80% 29.54 in 10.0 mi NE 3.5 mph - N/A   Clear
8:10 PM 28.4 °F - 23.0 °F 80% 29.53 in 10.0 mi Calm Calm - N/A   Clear
8:30 PM 26.6 °F - 23.0 °F 86% 29.53 in 10.0 mi Calm Calm - N/A   Clear
8:50 PM 26.6 °F - 23.0 °F 86% 29.50 in 10.0 mi Calm Calm - N/A   Clear
9:10 PM 26.6 °F - 23.0 °F 86% 29.49 in 10.0 mi Calm Calm - N/A   Clear
9:30 PM 26.6 °F - 23.0 °F 86% 29.49 in 10.0 mi Calm Calm - N/A   Clear
9:50 PM 26.6 °F 21.2 °F 23.0 °F 86% 29.49 in 10.0 mi West 4.6 mph - N/A   Clear
10:10 PM 26.6 °F - 23.0 °F 86% 29.47 in 10.0 mi Calm Calm - N/A   Clear
10:30 PM 26.6 °F 22.6 °F 23.0 °F 86% 29.46 in 10.0 mi WSW 3.5 mph - N/A   Clear
10:50 PM 26.6 °F 21.2 °F 23.0 °F 86% 29.47 in 10.0 mi NW 4.6 mph - N/A   Clear
11:10 PM 28.4 °F 24.6 °F 26.6 °F 93% 29.47 in 10.0 mi NNW 3.5 mph - N/A   Clear
11:30 PM 30.2 °F 26.7 °F 26.6 °F 86% 29.47 in 10.0 mi SE 3.5 mph - N/A   Clear
11:50 PM 26.6 °F - 24.8 °F 93% 29.46 in 10.0 mi Calm Calm - N/A   Clear